Regional Weather Roundup
Issued by NWS

Home | Current Version | Previous Version | Text Only | Print | Product List | Glossary Off
Versions: 1 2 3 4 5 6 7 8 9 10 11 12 13 14 15 16 17 18 19 20 21 22 23 24 25 26 27 28 29 30 31 32 33 34 35 36 37 38 39 40 41 42 43 44 45 46 47 48 49 50

000
ASUS43 KBIS 271310
RWRND

NORTH DAKOTA REGIONAL WEATHER ROUNDUP
NATIONAL WEATHER SERVICE BISMARCK ND
700 AM CST MON FEB 27 2017

NOTE: "FAIR" INDICATES FEW OR NO CLOUDS BELOW 12,000 FEET WITH NO
SIGNIFICANT WEATHER AND/OR OBSTRUCTIONS TO VISIBILITY.


NDZ001>003-009>011-017-271400-
NORTHWEST NORTH DAKOTA

CITY           SKY/WX    TMP DP  RH WIND       PRES   REMARKS
WILLISTON      LGT SNOW  12   8  84 N12       29.82R FOG     WCI  -2
MINOT          LGT SNOW  14   7  73 NW12      29.82R WCI   0
MINOT AFB      CLOUDY    12   7  79 NW10      29.82R WCI  -1
$$

NDZ018>021-031>035-040>046-271400-
SOUTHWEST NORTH DAKOTA

CITY           SKY/WX    TMP DP  RH WIND       PRES   REMARKS
BISMARCK       CLOUDY    11   8  88 E5        29.83S WCI   3
DICKINSON      LGT SNOW  18  15  88 E10       29.68F FOG     WCI   6
GARRISON         N/A     13  10  88 CALM      29.80S
HETTINGER ARPT CLEAR     17  14  88 E9        29.69F WCI   6
$$

NDZ004>008-012>016-024-026-027-054-271400-
NORTHEAST NORTH DAKOTA

CITY           SKY/WX    TMP DP  RH WIND       PRES   REMARKS
GRAND FORKS    MOCLDY    13   6  74 S8        29.89F WCI   2
GRND FRKS AFB  CLOUDY    11   7  81 CALM      29.89S
DEVILS LAKE    FAIR      11   8  88 W5        29.84S WCI   3
$$

NDZ022-023-025-028>030-036>039-047>053-271400-
SOUTHEAST NORTH DAKOTA

CITY           SKY/WX    TMP DP  RH WIND       PRES   REMARKS
FARGO          CLOUDY    20  14  77 CALM      29.90S
JAMESTOWN      CLOUDY    19  15  84 CALM      29.84F
$$




USA.gov is the U.S. government's official web portal to all federal, state and local government web resources and services.